User: anonymous   Login
Location: Domont
(49.0278°N, 2.3264°E)
Time: 05:12:12
(UTC+00:00)
Language:

Cosmos 1844 Rocket - Orbit

View from above orbital plane
View from above orbital plane
View from above satellite
View from above satellite

Ground track
Ground track

The orbit data is extracted from the following two-line orbital elements,

1 17974U 87041B   22017.64360910 -.00000214  00000-0 -82261-4 0  9991
2 17974  71.0094 339.6860 0014331 344.9553 187.7068 14.17285044794060
Epoch (UTC): 17 January 2022 15:26:47
Eccentricity: 0.0014331
inclination: 71.0094°
perigee height: 824 km
apogee height: 845 km
right ascension of ascending node: 339.6860°
argument of perigee: 344.9553°
revolutions per day: 14.17285044
mean anomaly at epoch: 187.7068°
orbit number at epoch: 79406

The dashed part of the orbit path shows where the satellite is in the earth's shadow,  

DLR